GBRNK EGNF-EGNF

Flight info

Callsign GBRNK
Flight time 0h 3m
Altitude 1000
Route VFR LOCAL
Aircraft C152/L-VGD/A

Departure

Time 2026-04-29 18:51
Airport Netherthorpe Airfield (EGNF)

Arrival

Time 2026-04-29 18:54
Airport Netherthorpe Airfield (EGNF)
Time Latitude Longitude Altitude Speed Heading
2026-04-29 18:41 53.32019 -1.17326 828 ft 80 kts 30°
2026-04-29 18:41 53.32396 -1.18098 570 ft 125 kts 262°
2026-04-29 18:42 53.31952 -1.19213 302 ft 98 kts 211°
2026-04-29 18:42 53.31534 -1.19904 274 ft 61 kts 222°
2026-04-29 18:42 53.31289 -1.20140 273 ft 18 kts 93°
2026-04-29 18:42 53.31384 -1.20010 266 ft 26 kts 28°
2026-04-29 18:43 53.31530 -1.19839 256 ft 23 kts 49°
2026-04-29 18:43 53.31614 -1.19621 242 ft 24 kts 63°
2026-04-29 18:43 53.31672 -1.19503 232 ft 0 kts 328°
2026-04-29 18:44 53.31680 -1.19514 232 ft 5 kts 321°
2026-04-29 18:44 53.31668 -1.19582 234 ft 12 kts 236°
2026-04-29 18:44 53.31632 -1.19682 241 ft 8 kts 240°
2026-04-29 18:44 53.31601 -1.19765 247 ft 7 kts 237°
2026-04-29 18:45 53.31544 -1.19903 258 ft 17 kts 236°
2026-04-29 18:45 53.31518 -1.19966 263 ft 0 kts 243°
2026-04-29 18:45 53.31518 -1.19967 264 ft 0 kts 242°
2026-04-29 18:46 53.31513 -1.19978 264 ft 4 kts 230°
2026-04-29 18:47 53.31524 -1.20005 264 ft 8 kts 56°
2026-04-29 18:47 53.31668 -1.19693 240 ft 42 kts 60°
2026-04-29 18:47 53.31771 -1.19398 224 ft 17 kts 353°
2026-04-29 18:47 53.31778 -1.19436 229 ft 16 kts 162°
2026-04-29 18:48 53.31712 -1.19466 229 ft 8 kts 236°
2026-04-29 18:48 53.31696 -1.19501 232 ft 0 kts 237°
2026-04-29 18:48 53.31696 -1.19502 232 ft 0 kts 232°
2026-04-29 18:49 53.31679 -1.19550 232 ft 14 kts 243°
2026-04-29 18:49 53.31614 -1.19712 244 ft 17 kts 236°
2026-04-29 18:49 53.31568 -1.19841 253 ft 12 kts 237°
2026-04-29 18:49 53.31517 -1.19970 264 ft 8 kts 243°
2026-04-29 18:50 53.31536 -1.20018 264 ft 6 kts 40°
2026-04-29 18:50 53.31553 -1.19980 261 ft 4 kts 52°
2026-04-29 18:50 53.31562 -1.19959 258 ft 7 kts 54°
2026-04-29 18:50 53.31710 -1.19602 266 ft 58 kts 54°
2026-04-29 18:51 53.31982 -1.19052 509 ft 53 kts 62°
2026-04-29 18:51 53.32122 -1.18491 780 ft 53 kts 81°
2026-04-29 18:51 53.31871 -1.17940 992 ft 76 kts 146°
2026-04-29 18:51 53.31248 -1.18082 990 ft 116 kts 200°
2026-04-29 18:52 53.30740 -1.19132 1019 ft 125 kts 236°
2026-04-29 18:52 53.30332 -1.20284 963 ft 127 kts 236°
2026-04-29 18:52 53.30003 -1.21582 1048 ft 116 kts 257°
2026-04-29 18:52 53.30097 -1.22748 1194 ft 98 kts 327°
2026-04-29 18:53 53.30661 -1.23144 1299 ft 71 kts 28°
2026-04-29 18:53 53.31020 -1.22597 973 ft 78 kts 72°
2026-04-29 18:53 53.31170 -1.21699 683 ft 80 kts 79°
2026-04-29 18:53 53.31261 -1.20921 489 ft 65 kts 73°
2026-04-29 18:54 53.31417 -1.20300 372 ft 52 kts 63°
2026-04-29 18:54 53.31613 -1.19795 260 ft 50 kts 57°
2026-04-29 18:54 53.31785 -1.19435 231 ft 27 kts 60°
2026-04-29 18:54 53.31802 -1.19297 217 ft 11 kts 203°
2026-04-29 18:55 53.31747 -1.19379 224 ft 2 kts 232°
2026-04-29 18:55 53.31742 -1.19394 225 ft 0 kts 285°
2026-04-29 19:01 53.31747 -1.19416 226 ft 11 kts 313°
2026-04-29 19:01 53.31770 -1.19406 224 ft 0 kts 158°
2026-04-29 19:02 53.31792 -1.19356 219 ft 17 kts 38°
2026-04-29 19:02 53.31822 -1.19343 218 ft 15 kts 227°
2026-04-29 19:02 53.31652 -1.19721 247 ft 64 kts 211°
2026-04-29 19:02 53.31433 -1.20214 276 ft 35 kts 248°
2026-04-29 19:03 53.31687 -1.19428 228 ft 0 kts 294°